Tracking 22458 objects as of 4-Mar-2021
HD Live streaming from Space Station
objects crossing your sky now

SL-14 R/B

Track SL-14 R/B now!
10-day predictions


NORAD ID: 23005
Int'l Code: 1994-011G
Perigee: 1,416.9 km
Apogee: 1,483.0 km
Inclination: 82.6 °
Period: 114.7 minutes
Semi major axis: 7820 km
RCS: 5.492 m2 (large)
Launch date: February 12, 1994
Source: Commonwealth of Independent States (former USSR) (CIS)
Launch site: PLESETSK MISSILE AND SPACE COMPLEX (PKMTR)

Note: This is a ROCKET BODY
aabbcc
Your satellite tracking list
Your tracking list is empty




NASA's NSSDC Master Catalog

Two Line Element Set (TLE):
1 23005U 94011G   21062.71666638  .00000016  00000-0  30723-4 0  9995
2 23005  82.5793 199.4001 0042229 112.3552  16.5948 12.55195871239436
Source of the keplerian elements: AFSPC